This demonstration page uses our WeatherBlox Daily Observations layout. Learn more.

Left ArrowRight Arrow

53.62937, 11.41316

Hourly Observations for August 7, 2021

Temp ( °F °C ) Dew Point ( °F °C ) Humidity (%) Winds ( mph kmh ) Pressure ( in mb ) Visibility ( mi km ) Precip ( " mm )
7:50 am 07:50 Mostly Sunny 59 15 59 15 100 100 S 3 6 29.65 1004 30 48 N/A
8:20 am 08:20 Mostly Sunny 61 16 59 15 94 94 S 5 7 29.65 1004 30 48 N/A
8:50 am 08:50 Partly Cloudy 61 16 61 16 100 100 S 5 7 29.65 1004 30 48 N/A
9:20 am 09:20 Mostly Sunny 64 18 61 16 88 88 S 5 7 29.65 1004 30 48 N/A
9:50 am 09:50 Partly Cloudy 63 17 61 16 94 94 S 6 9 29.65 1004 30 48 N/A
10:20 am 10:20 Partly Cloudy 64 18 61 16 88 88 S 5 7 29.65 1004 30 48 N/A
10:50 am 10:50 Partly Cloudy 66 19 61 16 83 83 S 8 13 29.65 1004 30 48 N/A
11:20 am 11:20 Partly Cloudy 68 20 59 15 73 73 S 9 15 29.65 1004 30 48 N/A
11:50 am 11:50 Partly Cloudy 68 20 61 16 78 78 S 8 13 29.65 1004 30 48 N/A
12:20 pm 12:20 Partly Cloudy with Light Showers 68 20 61 16 78 78 S 7 11 29.65 1004 30 48 N/A
12:50 pm 12:50 Partly Cloudy with Showers Nearby 70 21 63 17 78 78 S 7 11 29.65 1004 30 48 N/A
1:20 pm 13:20 Partly Cloudy 70 21 59 15 69 69 SSE 7 11 29.65 1004 30 48 N/A
1:50 pm 13:50 Partly Cloudy 72 22 59 15 65 65 S 8 13 29.62 1003 30 48 N/A
2:20 pm 14:20 Partly Cloudy 73 23 59 15 61 61 SSE 8 13 29.62 1003 30 48 N/A
2:50 pm 14:50 Partly Cloudy with Showers Nearby 72 22 57 14 61 61 S 7 11 29.62 1003 30 48 N/A
3:20 pm 15:20 Partly Cloudy with Showers Nearby 73 23 57 14 57 57 SE 7 11 29.59 1002 30 48 N/A
3:50 pm 15:50 Partly Cloudy with Showers Nearby 72 22 57 14 61 61 SSE 7 11 29.59 1002 30 48 N/A
4:20 pm 16:20 Partly Cloudy with Nearby Thunderstorms 66 19 59 15 78 78 WNW 3 6 29.59 1002 30 48 N/A
4:50 pm 16:50 Partly Cloudy with Nearby Thunderstorms 68 20 59 15 73 73 VRB 2 4 29.59 1002 30 48 N/A
5:20 pm 17:20 Partly Cloudy with Thunderstorms 64 18 59 15 83 83 VRB 2 4 29.62 1003 30 48 N/A
5:50 pm 17:50 Partly Cloudy with Light Showers 64 18 61 16 88 88 VRB 2 4 29.62 1003 30 48 N/A
6:20 pm 18:20 Partly Cloudy with Light Showers 63 17 61 16 94 94 ESE 3 6 29.59 1002 30 48 N/A
6:50 pm 18:50 Mostly Sunny 64 18 61 16 88 88 NE 5 7 29.59 1002 7 11 N/A
7:20 pm 19:20 Partly Cloudy with Showers Nearby 64 18 61 16 88 88 NE 6 9 29.59 1002 30 48 N/A
7:50 pm 19:50 Mostly Sunny 63 17 61 16 94 94 ENE 5 7 29.59 1002 7 11 N/A
8:20 pm 20:20 Mostly Sunny 63 17 63 17 100 100 ENE 3 6 29.59 1002 7 11 N/A
8:50 pm 20:50 Partly Cloudy with Nearby Thunderstorms 63 17 61 16 94 94 NNE 3 6 29.56 1001 30 48 N/A

Powered by AerisWeather